{"data":{"norad_id":65455,"epoch":"2026-09-20T13:15:27.931968Z","epoch_age_seconds":110341,"freshness":"FRESH","line1":"1 65455U 25194X   26263.55240662  .00011027  00000+0  34338-3 0  9999","line2":"2 65455  97.2852 113.1624 0001478  39.6175 320.5176 15.33445358 59075","mean_motion":15.33445358,"eccentricity":0.0001478,"inclination_deg":97.2852,"raan_deg":113.1624,"arg_perigee_deg":39.6175,"mean_anomaly_deg":320.5176,"bstar":0.00034338,"rev_number":5907,"period_min":93.906182733379,"perigee_km":464.53061354985,"apogee_km":466.55360509457,"semimajor_km":6843.6791093222,"source":"CELESTRAK","updated_at":"2026-09-21T09:00:35.612925Z"}}